[[[{"header":{"parameterUnit":"kt","parameterCategory":2,"dx":1,"dy":1,"la1":30.253999710083008,"la2":30.299108505249023,"lo1":-89.0895004272461,"lo2":-89.04439544677734,"nx":28,"ny":28,"refTime":"2022-10-31T21:00:00:Z","depth":0,"parameterNumber":1,"parameterNumberName":"U-component_of_WINDS"},"data":[-4.5857,-4.5996,-4.5994,-4.6152,-4.6176,-4.6284,-4.6322,-4.637,-4.6407,-4.6535,-4.6608,-4.6619,-4.6655,-4.6741,-4.682,-4.6823,-4.6858,-4.691,-4.6905,-4.6675,-4.6643,-4.6612,-4.658,-4.6917,-4.6917,-4.7146,-4.7148,-4.7149,-4.5691,-4.5716,-4.5798,-4.5877,-4.5947,-4.5896,-4.5953,-4.6016,-4.6113,-4.616,-4.6231,-4.6343,-4.6431,-4.6449,-4.6534,-4.6599,-4.658,-4.6622,-4.6619,-4.6626,-4.6379,-4.6344,-4.6636,-4.6636,-4.6636,-4.6636,-4.6636,-4.6636,-4.5387,-4.5471,-4.5516,-4.5605,-4.5643,-4.5695,-4.5774,-4.5785,-4.5866,-4.5953,-4.5932,-4.6042,-4.6088,-4.6187,-4.6219,-4.6305,-4.6257,-4.6303,-4.6315,-4.6327,-4.6343,-4.6019,-4.6318,-4.6317,-4.6316,-4.6316,-4.6315,0,-4.5165,-4.5157,-4.5235,-4.5313,-4.5377,-4.5437,-4.5491,-4.5539,-4.552,-4.5587,-4.5683,-4.5739,-4.5847,-4.5938,-4.6015,-4.6039,-4.5993,-4.5987,-4.6019,-4.6033,-4.6036,-4.6039,-4.5639,-4.5979,-4.5976,-4.5974,-4.5972,-4.5971,-4.4862,-4.4958,-4.5003,-4.5058,-4.5087,-4.5176,-4.5228,-4.5203,-4.526,-4.5323,-4.5397,-4.5487,-4.5558,-4.5713,-4.5724,-4.5806,-4.5785,-4.5915,-4.5797,-4.5806,-4.5791,-4.5787,-4.5797,-4.594,-4.5944,-4.5947,-4.595,0,-4.4692,-4.4685,-4.4833,-4.4867,-4.4879,-4.4981,-4.501,-4.5092,-4.5093,-4.5206,-4.523,-4.5233,-4.5328,-4.5318,-4.5423,-4.5416,-4.5587,-4.5562,-4.5571,-4.5567,-4.5686,-4.5676,-4.6065,-4.6116,-4.5763,-4.5766,-4.5769,0,-4.4432,-4.4559,-4.4542,-4.4628,-4.4768,-4.474,-4.488,-4.4894,-4.4932,-4.502,-4.4965,-4.5049,-4.5022,-4.5105,-4.5094,-4.5231,-4.525,-4.5253,-4.5249,-4.526,-4.5261,-4.5292,-4.5278,-4.5232,-4.523,-4.5228,-4.5227,0,-4.4169,-4.4307,-4.4446,-4.4477,-4.4526,-4.4592,-4.4615,-4.4656,-4.4708,-4.4773,-4.4806,-4.4883,-4.4926,-4.4987,-4.4972,-4.4892,-4.5138,-4.5025,-4.5142,-4.5143,-4.52,-4.5197,-4.5541,-4.5224,-4.5224,-4.5223,-4.5222,0,-4.3959,-4.4024,-4.4226,-4.4266,-4.4303,-4.4394,-4.4469,-4.4544,-4.4592,-4.459,-4.4641,-4.4603,-4.472,-4.4609,-4.477,-4.4671,-4.4717,-4.473,-4.4738,-4.4751,-4.4628,-4.4828,-4.5154,-4.5189,-4.4759,-4.4755,-4.4751,0,-4.3662,-4.3863,-4.3839,-4.4031,-4.4123,-4.4055,-4.4156,-4.4199,-4.4205,-4.4284,-4.4289,-4.438,-4.4294,-4.4321,-4.4402,-4.4413,-4.4541,-4.4394,-4.4512,-4.4516,-4.4505,-4.4804,-4.4857,-4.5083,-4.4702,-4.4707,-4.4711,0,-4.3431,-4.3487,-4.3523,-4.3557,-4.3609,-4.3685,-4.38,-4.3882,-4.3936,-4.3989,-4.4087,-4.4211,-4.4153,-4.4197,-4.4174,-4.4259,-4.4453,-4.4185,-4.4186,-4.4237,-4.4674,-4.4725,-4.4763,-4.4419,-4.4425,-4.443,-4.4671,0,-4.312,-4.3218,-4.3314,-4.3389,-4.3445,-4.3563,-4.3552,-4.3612,-4.3585,-4.3588,-4.3729,-4.3761,-4.3845,-4.3883,-4.3857,-4.4053,-4.4019,-4.3956,-4.385,-4.4045,-4.4124,-4.4156,-4.3732,-4.3729,-4.3726,-4.3724,0,0,-4.2839,-4.298,-4.2949,-4.3059,-4.3105,-4.3033,-4.3161,-4.3197,-4.3272,-4.3306,-4.3245,-4.3426,-4.3455,-4.3628,-4.3687,-4.372,-4.3755,-4.3687,-4.3951,-4.3977,-4.4,-4.4085,-4.4119,-4.3719,-4.3718,-4.3717,-4.3716,0,-4.2724,-4.2753,-4.2879,-4.2915,-4.2967,-4.2963,-4.2994,-4.3032,-4.304,-4.3177,-4.3116,-4.3199,-4.3343,-4.3383,-4.3422,-4.3665,-4.3616,-4.3691,-4.3827,-4.3924,-4.3953,-4.3979,-4.4068,-4.41,-4.371,-4.371,-4.3711,0,-4.2497,-4.2525,-4.2583,-4.2682,-4.2715,-4.281,-4.2695,-4.28,-4.287,-4.2786,-4.2923,-4.2939,-4.299,-4.3153,-4.3226,-4.3174,-4.349,-4.3386,-4.3403,-4.3412,-4.3506,-4.354,-4.3571,-4.3164,-4.3162,-4.316,0,0,-4.2399,-4.2489,-4.2511,-4.2656,-4.2682,-4.2678,-4.2727,-4.2704,-4.2751,-4.277,-4.279,-4.2838,-4.2921,-4.2977,-4.3055,-4.3235,-4.3245,-4.332,-4.3345,-4.3367,-4.3387,-4.3486,-4.352,-4.3153,-4.3153,-4.3153,0,0,-4.2352,-4.2383,-4.2347,-4.2514,-4.256,-4.2592,-4.2682,-4.2638,-4.2706,-4.2692,-4.2659,-4.267,-4.2822,-4.284,-4.2748,-4.3017,-4.2912,-4.2933,-4.3,-4.3032,-4.3058,-4.3051,-4.2636,0,0,0,0,0,-4.2228,-4.2379,-4.2345,-4.2372,-4.2496,-4.261,-4.2626,-4.2602,-4.2528,-4.26,-4.261,-4.2552,-4.2784,-4.2702,-4.2728,-4.2832,-4.3063,-4.3079,-4.3094,-4.3222,-4.3256,-4.3285,0,0,0,0,0,0,-4.2238,-4.227,-4.2341,-4.2379,-4.2407,-4.2604,-4.2474,-4.2472,-4.252,-4.2507,-4.2552,-4.2554,-4.2536,-4.2686,-4.2711,-4.281,-4.2627,-4.3069,-4.3083,-4.3095,-4.3234,-4.3262,-4.3286,0,0,0,0,0,-4.2246,-4.2272,-4.2477,-4.2377,-4.2401,-4.2405,-4.2469,-4.2465,-4.2502,-4.2517,-4.2517,-4.248,-4.2539,-4.2558,-4.2701,-4.28,-4.261,-4.2619,-4.3078,-4.3089,-4.3098,-4.3248,0,0,0,0,0,0,-4.2252,-4.227,-4.2481,-4.2488,-4.2318,-4.2394,-4.2405,-4.246,-4.2509,-4.251,-4.2442,-4.2431,-4.2544,-4.2557,-4.2572,-4.2797,-4.2596,-4.2606,-4.2612,-4.3086,-4.3095,-4.3102,0,0,0,0,0,0,-4.2256,-4.2276,-4.2485,-4.2412,-4.2409,-4.2383,-4.2393,-4.251,-4.251,-4.243,-4.2423,-4.2437,-4.2521,-4.2558,-4.2569,-4.2753,-4.2586,-4.2595,-4.2601,-4.2605,-4.3093,-4.31,0,0,0,0,0,0,-4.2264,-4.2281,-4.241,-4.2408,-4.2406,-4.2476,-4.2486,-4.2615,-4.2447,-4.2429,-4.2431,-4.2424,-4.2523,-4.2534,-4.2567,-4.2747,-4.2751,-4.2586,-4.2592,-4.2596,-4.2599,0,0,0,0,0,0,0,-4.227,-4.216,-4.2443,-4.2405,-4.2403,-4.2548,-4.2549,-4.2551,-4.2445,-4.2439,-4.2433,-4.2427,-4.2534,-4.2544,-4.2554,-4.2741,0,0,-4.2585,-4.2589,0,0,0,0,0,0,0,0,-4.2153,-4.2159,-4.2444,-4.2445,-4.2446,-4.2548,-4.2549,-4.2551,-4.2444,-4.2439,-4.2434,-4.243,-4.2537,-4.2545,-4.2553,0,0,0,0,0,0,0,0,0,0,0,0,0,0,0,-4.2444,-4.2445,0,-4.2548,-4.2549,-4.255,-4.2444,-4.2439,-4.2435,-4.2431,-4.2539,-4.2546,-4.2552,0,0,0,0,0,0,0,0,0,0,0,0,0,0,0,0,0,0,0,0,0,0,0,0,0,0,0,0,0,0,0,0,0,0,0,0,0,0,0,0,0,0,0,0,0,0,0,0,0,0,0,0,0,0,0,0,0,0,0,0,0,0,0,0,0,0,0,0,0]}],[{"header":{"parameterUnit":"kt","parameterCategory":2,"dx":1,"dy":1,"la1":30.253999710083008,"la2":30.299108505249023,"lo1":-89.0895004272461,"lo2":-89.04439544677734,"nx":28,"ny":28,"refTime":"2022-10-31T21:00:00:Z","depth":0,"parameterNumber":2,"parameterNumberName":"V-component_of_WINDS"},"data":[-6.1454,-6.1541,-6.1532,-6.1626,-6.1634,-6.1696,-6.1715,-6.1738,-6.1754,-6.1825,-6.1864,-6.1862,-6.1873,-6.1915,-6.1956,-6.1953,-6.1971,-6.2008,-6.1999,-6.1842,-6.182,-6.1798,-6.1778,-6.2012,-6.2013,-6.2162,-6.2163,-6.2165,-6.1339,-6.1349,-6.1396,-6.1436,-6.1476,-6.1435,-6.1463,-6.1498,-6.1554,-6.1574,-6.1612,-6.1673,-6.172,-6.1717,-6.1759,-6.1797,-6.1779,-6.1809,-6.1806,-6.1808,-6.164,-6.1619,-6.1823,-6.1823,-6.1823,-6.1823,-6.1823,-6.1823,-6.1128,-6.118,-6.12,-6.1251,-6.1268,-6.1295,-6.1342,-6.134,-6.1385,-6.143,-6.1409,-6.1471,-6.1488,-6.1533,-6.1546,-6.1592,-6.1557,-6.1586,-6.1593,-6.1601,-6.1611,-6.1395,-6.1599,-6.1598,-6.1598,-6.1597,-6.1597,0,-6.097,-6.096,-6.1005,-6.1047,-6.1084,-6.1115,-6.1142,-6.1171,-6.1143,-6.1181,-6.1235,-6.1264,-6.1321,-6.1369,-6.1406,-6.1412,-6.1371,-6.1366,-6.1386,-6.1397,-6.1402,-6.1399,-6.1126,-6.136,-6.1358,-6.1356,-6.1355,-6.1354,-6.0756,-6.0818,-6.0834,-6.0866,-6.0879,-6.0932,-6.0961,-6.0932,-6.0964,-6.0991,-6.1038,-6.1086,-6.1123,-6.121,-6.1203,-6.1245,-6.1225,-6.1315,-6.1231,-6.1239,-6.1225,-6.1222,-6.1227,-6.1332,-6.1335,-6.1337,-6.1339,0,-6.0635,-6.0621,-6.0714,-6.0723,-6.0727,-6.0793,-6.0799,-6.0849,-6.084,-6.0908,-6.0922,-6.0907,-6.096,-6.0939,-6.0994,-6.0981,-6.1087,-6.1067,-6.1081,-6.1075,-6.1153,-6.1146,-6.1412,-6.1445,-6.1202,-6.1205,-6.1207,0,-6.0446,-6.0529,-6.0501,-6.0557,-6.0647,-6.0615,-6.0705,-6.0706,-6.0721,-6.0774,-6.0725,-6.0775,-6.074,-6.0787,-6.0768,-6.085,-6.0861,-6.0855,-6.0849,-6.086,-6.086,-6.0875,-6.0863,-6.0834,-6.0832,-6.0831,-6.083,0,-6.0259,-6.0342,-6.0431,-6.0447,-6.0464,-6.0506,-6.0515,-6.0531,-6.0559,-6.0593,-6.061,-6.0651,-6.0674,-6.0705,-6.0681,-6.0624,-6.0782,-6.0698,-6.0776,-6.0777,-6.0811,-6.0809,-6.1051,-6.0828,-6.0828,-6.0828,-6.0827,0,-6.0103,-6.014,-6.0273,-6.0285,-6.0308,-6.0366,-6.0405,-6.045,-6.047,-6.0463,-6.0488,-6.0452,-6.0524,-6.0443,-6.054,-6.0473,-6.0497,-6.0499,-6.0504,-6.0508,-6.0418,-6.0556,-6.0789,-6.0812,-6.0513,-6.051,-6.0508,0,-5.9893,-6.0023,-5.9996,-6.0122,-6.0179,-6.012,-6.0184,-6.0204,-6.0199,-6.0245,-6.0238,-6.029,-6.0226,-6.0239,-6.029,-6.0285,-6.0372,-6.0272,-6.0336,-6.0339,-6.0333,-6.0547,-6.0587,-6.0741,-6.0474,-6.0478,-6.048,0,-5.9728,-5.9749,-5.9773,-5.979,-5.9812,-5.9859,-5.9933,-5.9979,-6.0011,-6.0038,-6.0098,-6.0171,-6.0125,-6.0148,-6.0122,-6.0177,-6.0312,-6.0119,-6.0119,-6.0154,-6.0456,-6.0493,-6.0519,-6.0282,-6.0286,-6.029,-6.0453,0,-5.9495,-5.9558,-5.9623,-5.9663,-5.9696,-5.9774,-5.9753,-5.979,-5.9763,-5.9755,-5.9843,-5.9853,-5.9898,-5.9922,-5.9896,-6.0027,-6.0001,-5.9951,-5.987,-6.0012,-6.0065,-6.0087,-5.9793,-5.979,-5.9788,-5.9786,0,0,-5.9297,-5.9387,-5.9355,-5.9427,-5.9453,-5.939,-5.9475,-5.9493,-5.953,-5.9548,-5.9503,-5.9608,-5.9618,-5.9727,-5.9769,-5.9788,-5.9809,-5.976,-5.9945,-5.9962,-5.9979,-6.0036,-6.0059,-5.9783,-5.9782,-5.9781,-5.978,0,-5.9207,-5.9222,-5.9307,-5.9324,-5.9349,-5.9337,-5.9358,-5.937,-5.9369,-5.9456,-5.9402,-5.9452,-5.9537,-5.9554,-5.9574,-5.9747,-5.9702,-5.9762,-5.9863,-5.9924,-5.9945,-5.9963,-6.0024,-6.0046,-5.9775,-5.9776,-5.9776,0,-5.904,-5.9051,-5.909,-5.9147,-5.9162,-5.9222,-5.9132,-5.9199,-5.9243,-5.9169,-5.9256,-5.9258,-5.9279,-5.9386,-5.9432,-5.9392,-5.9607,-5.9535,-5.9548,-5.9552,-5.9611,-5.9635,-5.9658,-5.9367,-5.9365,-5.9364,0,0,-5.8965,-5.9024,-5.9025,-5.9126,-5.914,-5.9124,-5.9153,-5.9129,-5.9151,-5.916,-5.9162,-5.9183,-5.9232,-5.9264,-5.9309,-5.9429,-5.943,-5.9486,-5.9505,-5.9521,-5.9534,-5.9597,-5.9621,-5.9359,-5.9359,-5.9359,0,0,-5.8929,-5.8935,-5.8904,-5.9019,-5.9042,-5.9049,-5.9111,-5.9072,-5.9111,-5.9099,-5.906,-5.9064,-5.9163,-5.9167,-5.9103,-5.9279,-5.9199,-5.9214,-5.9273,-5.9297,-5.9316,-5.9312,-5.9011,0,0,0,0,0,-5.8827,-5.8934,-5.8906,-5.8922,-5.8994,-5.9065,-5.9073,-5.9044,-5.8989,-5.9038,-5.9034,-5.8984,-5.9124,-5.9066,-5.9082,-5.9154,-5.9294,-5.9306,-5.9317,-5.942,-5.9445,-5.9467,0,0,0,0,0,0,-5.8833,-5.8853,-5.8903,-5.8915,-5.8931,-5.906,-5.896,-5.8955,-5.8983,-5.8972,-5.8987,-5.8985,-5.896,-5.9056,-5.9071,-5.914,-5.9006,-5.9299,-5.9309,-5.9317,-5.9429,-5.9449,-5.9467,0,0,0,0,0,-5.8837,-5.8853,-5.8976,-5.8913,-5.8927,-5.8914,-5.8955,-5.895,-5.8971,-5.8965,-5.8961,-5.8947,-5.8963,-5.8973,-5.9065,-5.9134,-5.8995,-5.9001,-5.9305,-5.9313,-5.932,-5.9439,0,0,0,0,0,0,-5.8841,-5.8849,-5.8978,-5.8981,-5.8871,-5.8906,-5.8911,-5.8947,-5.8961,-5.8959,-5.8922,-5.8914,-5.8967,-5.8974,-5.8982,-5.9134,-5.8987,-5.8993,-5.8996,-5.9311,-5.9317,-5.9322,0,0,0,0,0,0,-5.884,-5.8852,-5.898,-5.8928,-5.8924,-5.8899,-5.8904,-5.8977,-5.8962,-5.8918,-5.8911,-5.8919,-5.8954,-5.8975,-5.8981,-5.9096,-5.8981,-5.8986,-5.899,-5.8992,-5.9316,-5.9321,0,0,0,0,0,0,-5.8844,-5.8854,-5.8927,-5.8924,-5.8921,-5.8952,-5.8963,-5.9037,-5.8919,-5.8918,-5.8908,-5.8903,-5.8956,-5.8961,-5.898,-5.9093,-5.9095,-5.8981,-5.8984,-5.8987,-5.8989,0,0,0,0,0,0,0,-5.8848,-5.8787,-5.8961,-5.8921,-5.8918,-5.9009,-5.901,-5.9011,-5.8918,-5.8914,-5.8909,-5.8905,-5.895,-5.8956,-5.8962,-5.9091,0,0,-5.898,-5.8983,0,0,0,0,0,0,0,0,-5.8782,-5.8786,-5.8961,-5.8961,-5.8962,-5.9009,-5.901,-5.901,-5.8917,-5.8914,-5.891,-5.8907,-5.8951,-5.8956,-5.8961,0,0,0,0,0,0,0,0,0,0,0,0,0,0,0,-5.8961,-5.8961,0,-5.9009,-5.901,-5.901,-5.8917,-5.8914,-5.8911,-5.8908,-5.8953,-5.8957,-5.8961,0,0,0,0,0,0,0,0,0,0,0,0,0,0,0,0,0,0,0,0,0,0,0,0,0,0,0,0,0,0,0,0,0,0,0,0,0,0,0,0,0,0,0,0,0,0,0,0,0,0,0,0,0,0,0,0,0,0,0,0,0,0,0,0,0,0,0,0,0]}]]]